When you browse on this site, cookies collect data to enhance your experience and personalize the content and advertising you see.
Visit our Privacy Policy to learn more. By continuing to use the site, you agree to this use of cookies and data.
  • In United Kingdom
  • List of Countries
  • For 7 days
  • Water Temperature
  • Weather Map
  • Weather Widgets
  • user-avatar
    Login

    Hourly Weather Tamale

    Today, 28 May, Thursday

    Time Temperature Precipitation Wind Pressure Humidity
    00:00 +27°C° 0 mm 0 mps 743 mmHg 75%
    01:00 +28°C° 0 mm 1 mps 743 mmHg 77%
    02:00 +28°C° 0 mm 1 mps 742 mmHg 78%
    03:00 +28°C° 0 mm 1 mps 742 mmHg 80%
    04:00 +28°C° 0 mm 1 mps 742 mmHg 81%
    05:00 +27°C° 0 mm 1 mps 742 mmHg 83%
    06:00 +27°C° 0 mm 1 mps 742 mmHg 84%
    07:00 +29°C° 0.1 mm 1 mps 743 mmHg 75%
    08:00 +32°C° 0.1 mm 1 mps 743 mmHg 67%
    09:00 +34°C° 0.1 mm 1 mps 743 mmHg 58%
    10:00 +36°C° 0.1 mm 1 mps 743 mmHg 51%
    11:00 +39°C° 0.1 mm 1 mps 742 mmHg 45%
    12:00 +41°C° 0.1 mm 1 mps 742 mmHg 38%
    13:00 +40°C° 0 mm 1 mps 741 mmHg 39%
    14:00 +39°C° 0 mm 2 mps 740 mmHg 40%
    15:00 +39°C° 0 mm 2 mps 739 mmHg 41%
    16:00 +37°C° 0 mm 1 mps 739 mmHg 44%
    17:00 +35°C° 0 mm 1 mps 739 mmHg 48%
    18:00 +32°C° 0 mm 0 mps 739 mmHg 51%
    19:00 +32°C° 0.9 mm 1 mps 740 mmHg 60%
    20:00 +30°C° 0.9 mm 2 mps 741 mmHg 69%
    21:00 +29°C° 0.9 mm 3 mps 742 mmHg 78%
    22:00 +28°C° 1 mm 2 mps 742 mmHg 82%
    23:00 +27°C° 1 mm 1 mps 742 mmHg 85%

    Tomorrow, 29 May, Friday

    Time Temperature Precipitation Wind Pressure Humidity
    00:00 +27°C° 1 mm 1 mps 742 mmHg 88%
    01:00 +27°C° 0 mm 1 mps 742 mmHg 88%
    02:00 +27°C° 0 mm 1 mps 741 mmHg 88%
    03:00 +26°C° 0 mm 1 mps 741 mmHg 88%
    04:00 +26°C° 0.3 mm 1 mps 741 mmHg 89%
    05:00 +26°C° 0.3 mm 1 mps 741 mmHg 90%
    06:00 +26°C° 0.3 mm 1 mps 742 mmHg 90%
    07:00 +28°C° 0 mm 1 mps 742 mmHg 82%
    08:00 +30°C° 0 mm 1 mps 742 mmHg 73%
    09:00 +31°C° 0 mm 1 mps 742 mmHg 64%
    10:00 +34°C° 0 mm 1 mps 742 mmHg 56%
    11:00 +36°C° 0 mm 1 mps 742 mmHg 49%
    12:00 +39°C° 0 mm 1 mps 741 mmHg 41%
    13:00 +39°C° 0 mm 1 mps 741 mmHg 42%
    14:00 +38°C° 0 mm 2 mps 740 mmHg 43%
    15:00 +37°C° 0 mm 2 mps 740 mmHg 44%
    16:00 +36°C° 0 mm 2 mps 740 mmHg 49%
    17:00 +35°C° 0 mm 2 mps 740 mmHg 54%
    18:00 +34°C° 0 mm 2 mps 740 mmHg 59%
    19:00 +31°C° 0.4 mm 2 mps 740 mmHg 65%
    20:00 +30°C° 0.4 mm 3 mps 741 mmHg 72%
    21:00 +29°C° 0.4 mm 3 mps 741 mmHg 79%
    22:00 +28°C° 0.1 mm 3 mps 742 mmHg 80%
    23:00 +28°C° 0.1 mm 3 mps 742 mmHg 82%

    Day after tomorrow, 30 May, Saturday

    Time Temperature Precipitation Wind Pressure Humidity
    00:00 +28°C° 0.1 mm 3 mps 742 mmHg 83%
    01:00 +27°C° 0.1 mm 3 mps 742 mmHg 84%
    02:00 +27°C° 0.1 mm 2 mps 741 mmHg 84%
    03:00 +27°C° 0.1 mm 1 mps 741 mmHg 84%
    04:00 +27°C° 0 mm 1 mps 741 mmHg 85%
    05:00 +27°C° 0 mm 1 mps 742 mmHg 86%
    06:00 +27°C° 0 mm 1 mps 742 mmHg 87%
    07:00 +28°C° 0 mm 1 mps 742 mmHg 80%
    08:00 +29°C° 0 mm 2 mps 742 mmHg 74%
    09:00 +31°C° 0 mm 2 mps 742 mmHg 68%
    10:00 +31°C° 0 mm 2 mps 742 mmHg 64%
    11:00 +32°C° 0 mm 1 mps 742 mmHg 59%
    12:00 +33°C° 0 mm 1 mps 742 mmHg 55%
    13:00 +34°C° 0 mm 1 mps 741 mmHg 52%
    14:00 +35°C° 0 mm 1 mps 741 mmHg 49%
    15:00 +35°C° 0 mm 1 mps 740 mmHg 46%
    16:00 +34°C° 0 mm 1 mps 741 mmHg 51%
    17:00 +33°C° 0 mm 1 mps 741 mmHg 56%
    18:00 +31°C° 0 mm 1 mps 741 mmHg 60%
    19:00 +30°C° 0.5 mm 2 mps 741 mmHg 67%
    20:00 +29°C° 0.5 mm 2 mps 742 mmHg 73%
    21:00 +27°C° 0.5 mm 2 mps 742 mmHg 80%
    22:00 +27°C° 0.3 mm 2 mps 742 mmHg 83%
    23:00 +26°C° 0.3 mm 2 mps 742 mmHg 86%

    31 May, Sunday

    Time Temperature Precipitation Wind Pressure Humidity
    00:00 +26°C° 0.3 mm 2 mps 742 mmHg 89%
    01:00 +26°C° 0 mm 2 mps 742 mmHg 89%
    02:00 +26°C° 0 mm 2 mps 742 mmHg 89%
    03:00 +26°C° 0 mm 2 mps 741 mmHg 89%
    04:00 +26°C° 0 mm 2 mps 742 mmHg 90%
    05:00 +26°C° 0 mm 2 mps 742 mmHg 92%
    06:00 +25°C° 0 mm 2 mps 742 mmHg 93%
    07:00 +27°C° 0 mm 2 mps 743 mmHg 86%
    08:00 +28°C° 0 mm 2 mps 743 mmHg 80%
    09:00 +30°C° 0 mm 2 mps 744 mmHg 74%
    10:00 +31°C° 0 mm 2 mps 744 mmHg 71%
    11:00 +31°C° 0 mm 1 mps 743 mmHg 67%
    12:00 +32°C° 0 mm 1 mps 743 mmHg 64%
    13:00 +33°C° 0 mm 1 mps 742 mmHg 61%
    14:00 +33°C° 0 mm 1 mps 742 mmHg 58%
    15:00 +34°C° 0 mm 1 mps 741 mmHg 55%
    16:00 +33°C° 0 mm 1 mps 741 mmHg 59%
    17:00 +32°C° 0 mm 1 mps 741 mmHg 62%
    18:00 +31°C° 0 mm 1 mps 741 mmHg 65%
    19:00 +30°C° 0 mm 1 mps 742 mmHg 68%
    20:00 +30°C° 0 mm 1 mps 742 mmHg 70%
    21:00 +27°C° 0 mm 0 mps 743 mmHg 72%
    22:00 +29°C° 0.1 mm 1 mps 743 mmHg 74%
    23:00 +28°C° 0.1 mm 1 mps 743 mmHg 76%

    1 June, Monday

    Time Temperature Precipitation Wind Pressure Humidity
    00:00 +28°C° 0.1 mm 1 mps 743 mmHg 77%
    01:00 +27°C° 0 mm 2 mps 742 mmHg 79%
    02:00 +27°C° 0 mm 2 mps 742 mmHg 81%
    03:00 +27°C° 0 mm 2 mps 742 mmHg 83%
    04:00 +27°C° 0 mm 2 mps 742 mmHg 85%
    05:00 +27°C° 0 mm 2 mps 742 mmHg 87%
    06:00 +26°C° 0 mm 2 mps 742 mmHg 88%
    07:00 +28°C° 0 mm 2 mps 743 mmHg 84%
    08:00 +29°C° 0 mm 2 mps 743 mmHg 79%
    09:00 +30°C° 0 mm 3 mps 743 mmHg 74%
    10:00 +33°C° 0 mm 3 mps 743 mmHg 68%
    11:00 +34°C° 0 mm 2 mps 743 mmHg 61%
    12:00 +36°C° 0 mm 2 mps 743 mmHg 54%
    13:00 +37°C° 0 mm 2 mps 742 mmHg 52%
    14:00 +37°C° 0 mm 2 mps 741 mmHg 49%
    15:00 +38°C° 0 mm 2 mps 741 mmHg 47%
    16:00 +36°C° 0.5 mm 2 mps 741 mmHg 54%
    17:00 +34°C° 0.5 mm 2 mps 741 mmHg 62%
    18:00 +32°C° 0.5 mm 2 mps 740 mmHg 69%
    19:00 +30°C° 2.7 mm 2 mps 741 mmHg 76%
    20:00 +29°C° 2.7 mm 1 mps 742 mmHg 83%
    21:00 +28°C° 2.7 mm 1 mps 742 mmHg 89%
    22:00 +27°C° 0 mm 1 mps 742 mmHg 90%
    23:00 +27°C° 0 mm 1 mps 742 mmHg 90%

    2 June, Tuesday

    Time Temperature Precipitation Wind Pressure Humidity
    00:00 +27°C° 0 mm 1 mps 742 mmHg 90%
    01:00 +27°C° 0 mm 2 mps 742 mmHg 91%
    02:00 +27°C° 0 mm 2 mps 742 mmHg 92%
    03:00 +26°C° 0 mm 2 mps 741 mmHg 93%
    04:00 +26°C° 0 mm 2 mps 742 mmHg 94%
    05:00 +26°C° 0 mm 2 mps 742 mmHg 94%
    06:00 +26°C° 0 mm 2 mps 742 mmHg 95%
    07:00 +27°C° 0 mm 2 mps 742 mmHg 90%
    08:00 +28°C° 0 mm 3 mps 743 mmHg 85%
    09:00 +29°C° 0 mm 4 mps 743 mmHg 80%
    10:00 +30°C° 0 mm 3 mps 743 mmHg 73%
    11:00 +33°C° 0 mm 3 mps 742 mmHg 67%
    12:00 +35°C° 0 mm 3 mps 742 mmHg 60%
    13:00 +35°C° 0 mm 3 mps 742 mmHg 58%
    14:00 +36°C° 0 mm 3 mps 741 mmHg 56%
    15:00 +36°C° 0 mm 3 mps 740 mmHg 54%
    16:00 +35°C° 0 mm 3 mps 740 mmHg 58%
    17:00 +34°C° 0 mm 2 mps 740 mmHg 63%
    18:00 +32°C° 0 mm 2 mps 740 mmHg 67%
    19:00 +31°C° 0 mm 2 mps 741 mmHg 69%
    20:00 +30°C° 0 mm 2 mps 741 mmHg 72%
    21:00 +29°C° 0 mm 2 mps 741 mmHg 75%
    22:00 +29°C° 0 mm 2 mps 741 mmHg 77%
    23:00 +28°C° 0 mm 1 mps 741 mmHg 79%
    Show more